Regional Weather Roundup
Issued by NWS Boston, MA

Home | Current Version | Previous Version | Text Only | Print | Product List | Glossary On
Versions: 1 2 3 4 5 6 7 8 9 10 11 12 13 14 15 16 17 18 19 20 21 22 23 24 25 26 27
000
ASUS41 KBOX 292110
RWRBOX

REGIONAL WEATHER ROUNDUP
NATIONAL WEATHER SERVICE TAUNTON MA
500 PM EDT MON MAY 29 2017

NOTE:  "FAIR" INDICATES FEW OR NO CLOUDS BELOW 12,000 FEET WITH NO
SIGNIFICANT WEATHER AND/OR OBSTRUCTIONS TO VISIBILITY.

MAZALL-292200-
EASTERN MASSACHUSETTS

CITY           SKY/WX    TMP DP  RH WIND       PRES   REMARKS
BOSTON         LGT RAIN  50  49  96 NE8       30.09R FOG
BEVERLY        CLOUDY    51  49  92 NE7       30.10R FOG
LAWRENCE       LGT RAIN  51  47  86 NE7       30.12R
BEDFORD        LGT RAIN  50  47  89 NE6       30.08R FOG
BLUE HILL        N/A     48  46  93 NE8       30.06R
NORWOOD        CLOUDY    51  49  92 NE3       30.08R
MARSHFIELD     FOG       52  52 100 VRB3      30.07R VSB 1
PLYMOUTH       LGT RAIN  50  48  93 N10       30.06R FOG
TAUNTON        CLOUDY    52  47  83 N3        30.06R
NEW BEDFORD    CLOUDY    51  49  92 N7        30.04R
$$

MAZALL-292200-
CAPE COD AND THE ISLANDS

CITY           SKY/WX    TMP DP  RH WIND       PRES   REMARKS
FALMOUTH       CLOUDY    52  50  93 MISG      30.04S
HYANNIS        CLOUDY    51  50  96 NE10      30.02R
CHATHAM        CLOUDY    51  50  96 NE7       30.04R FOG
PROVINCETOWN   CLOUDY    50  49  96 NE12      30.07R
NANTUCKET      CLOUDY    52  50  93 NE17      30.00R
MARTHAS VNYRD  CLOUDY    53  51  93 NE12      30.02R
$$

MAZALL-292200-
CENTRAL AND WESTERN MASSACHUSETTS

CITY           SKY/WX    TMP DP  RH WIND       PRES   REMARKS
WORCESTER      LGT RAIN  48  46  93 NE8       30.06S FOG
FITCHBURG      LGT RAIN  52  50  93 NE6       30.08R FOG
ORANGE         LGT RAIN  53  52  96 E7        30.05F
SPRINGFIELD    CLOUDY    55  52  88 VRB6      30.03S
WESTFIELD      CLOUDY    54  53  97 E6        30.03S
NORTH ADAMS    CLOUDY    56  51  84 E8        30.01R
$$

RIZALL-292200-
RHODE ISLAND

CITY           SKY/WX    TMP DP  RH WIND       PRES   REMARKS
PROVIDENCE     LGT RAIN  52  51  97 NE10      30.07R FOG
NEWPORT        LGT RAIN  52  50  93 N12       30.05R
BLOCK ISLAND   LGT RAIN  54  52  94 NE8       30.05R
SMITHFIELD     LGT RAIN  50  48  93 NE9       30.06R FOG
WESTERLY       CLOUDY    55  53  93 NE5       30.05R FOG
$$

CTZALL-292200-
CONNECTICUT

CITY           SKY/WX    TMP DP  RH WIND       PRES   REMARKS
BRADLEY INTL   CLOUDY    56  52  86 SE6       30.04S
HARTFORD       CLOUDY    57  52  83 CALM      30.04R
BRIDGEPORT     CLOUDY    57  52  83 SE7       30.04R
DANBURY        CLOUDY    55  52  89 VRB3      30.04R
GROTON         LGT RAIN  55  52  89 NE9       30.03S FOG
NEW HAVEN      CLOUDY    57  54  89 CALM      30.04R
CHESTER        CLOUDY    55  54  94 NE6       30.03R
MERIDEN        CLOUDY    57  51  80 E3        30.04R
WILLIMANTIC    CLOUDY    57  53  86 NE8       30.05R
OXFORD         CLOUDY    55  48  76 SE3       30.04R
$$

MEZ002-015-021-024-NHZ003-005-008-011-012-014-VTZ005-008-292200-
NORTHERN NEW ENGLAND

CITY           SKY/WX    TMP DP  RH WIND       PRES   REMARKS
PORTLAND ME    CLOUDY    46  45  96 E9        30.12R FOG
BANGOR ME      CLOUDY    56  45  66 S10       30.12R
CONCORD NH     LGT RAIN  50  47  89 CALM      30.11R
MANCHESTER NH  CLOUDY    50  45  83 NE7       30.09R
NASHUA NH      LGT RAIN  51  48  89 VRB6      30.10R
PORTSMOUTH NH  LGT RAIN  48  46  94 E7        30.10R FOG
JAFFREY NH     LGT RAIN  49  49 100 VRB3      30.06F
KEENE NH       LGT RAIN  52  48  86 VRB5      30.06S
BURLINGTON VT  LGT RAIN  56  53  90 SE9       29.97F
MT. WASHINGTON LGT RAIN  32  32 100 S30         N/A  VSB 1/16WCI  18
$$

NYZ052-076-292200-
EASTERN NEW YORK

CITY           SKY/WX    TMP DP  RH WIND       PRES   REMARKS
ALBANY         CLOUDY    58  53  84 SE5       29.99R
NEW YORK CITY  CLOUDY    57  52  83 NE10      30.02S
$$

ANZALL-292200-
MARINE OBSERVATIONS

STATION/POSITION TIME  TEMP    WIND        PRES    VSBY  WAVE
                       AIR SEA DIR/SP/G                  HT/PER
                 (UTC) (F)     (DEG/KT/KT) (MB)    (MI)  (FT/S)
BOSTON BUOY      2050   49 52   50/ 12/ 14 1017.8R         3/ 6
BUZZARDS BAY     2000   52      30/ 18/ 20 1016.5R
NANTUCKET SOUND  2050      54              1015.9R         3/ 3
MASS BAY-STELLWA 2004   49 51   60/ 12/ 16 1017.0S
ISLE OF SHOALS   2000   47      60/ 14/ 17 1018.0F
S OF BLOCK IS    2055      53                N/A           5/ 6
$$

......................KEY.........................
  SKY/WX - SKY CONDITION/PRESENT WEATHER
  TMP    - TEMPERATURE IN FAHRENHEIT
  DWPT   - DEWPOINT IN FAHRENHEIT
  RH     - RELATIVE HUMIDITY IN PERCENT
  WIND   - DIRECTION AND SPEED IN MPH
  PRES   - MEAN SEA LEVEL PRESSURE IN INCHES OF HG
  WCI    - WIND CHILL INDEX
  VSB    - VISIBILITY IN MILES
  HX     - HEAT INDEX
  TC     - TEMPERATURE IN CELSIUS
  VRB    - VARIABLE WIND DIRECTION
  N/A    - NOT AVAILABLE




USA.gov is the U.S. government's official web portal to all federal, state and local government web resources and services.